Regional Weather Roundup
Issued by NWS

Home | Current Version | Previous Version | Graphics & Text | Print | Product List | Glossary On
Versions: 1 2 3 4 5 6 7 8 9 10 11 12 13 14 15 16 17 18 19 20 21 22 23 24 25 26 27 28 29 30 31 32 33 34 35 36 37 38 39 40 41 42 43 44 45 46 47 48 49 50
000
ASUS43 KMKX 221310
RWRWI

WISCONSIN REGIONAL WEATHER ROUNDUP
NATIONAL WEATHER SERVICE MILWAUKEE/SULLIVAN WI
700 AM CST WED NOV 22 2017

NOTE: "FAIR" INDICATES FEW OR NO CLOUDS BELOW 12,000 FEET WITH NO
SIGNIFICANT WEATHER AND/OR OBSTRUCTIONS TO VISIBILITY.

WIZ001-002-006>008-014>016-023>028-221400-
NORTHWEST WISCONSIN

CITY           SKY/WX    TMP DP  RH WIND       PRES   REMARKS
SUPERIOR ARPT  CLOUDY    10   8  89 S6        30.28F WCI   1
ASHLAND        CLOUDY    14   9  80 SW6       30.29S WCI   5
HAYWARD        CLOUDY    11   8  88 CALM      30.28R
SIREN          CLOUDY     8   5  89 SW3       30.31R
CUMBERLAND     CLOUDY    10   9  92 S3        30.28S
RICE LAKE      CLOUDY    11   9  89 CALM      30.31S
CHETEK           N/A      9   7  90 SW5       30.31S WCI   1
LADYSMITH      CLOUDY    13  10  89 CALM      30.30S
EAU CLAIRE     CLOUDY    11   8  88 S3        30.32R
MENOMONIE      CLOUDY    14  10  83 CALM      30.33S
NEW RICHMOND   CLOUDY    12   9  87 SW3       30.32R
OSCEOLA        CLOUDY    11   9  88 CALM      30.35R
$$

WIZ003>005-009-010-017-018-221400-
NORTH CENTRAL WISCONSIN

CITY           SKY/WX    TMP DP  RH WIND       PRES   REMARKS
MANITOWISH WTR CLOUDY    11  11  98 CALM      30.22S
ARBOR VITAE    FLURRIES  18  13  82 W3        30.22R
WOODRUFF       FLURRIES  18  13  82 W3        30.22R
RHINELANDER    CLOUDY    17  11  77 CALM      30.23R
EAGLE RIVER    FLURRIES  17  11  77 W6        30.21R WCI   9
LAND O LAKES   FLURRIES  18  13  84 W5        30.22S WCI  11
PHILLIPS       CLOUDY    11   9  91 CALM      30.25R
TOMAHAWK       CLOUDY     9   7  89 CALM      30.25R
MEDFORD        CLOUDY    13  10  84 CALM      30.26R
MERRILL        CLOUDY    12   8  81 CALM      30.27R
$$

WIZ029-030-035-036-043>047-221400-
CENTRAL WISCONSIN

CITY           SKY/WX    TMP DP  RH WIND       PRES   REMARKS
WAUSAU         CLOUDY    16   9  74 CALM      30.26R
MOSINEE        PTCLDY    14  10  85 W3        30.28R
MARSHFIELD     CLOUDY    15   9  76 CALM      30.27R
STEVENS POINT  CLOUDY    10   8  89 CALM      30.30R
WAUPACA        CLOUDY    18  12  79 CALM      30.31R
WAUTOMA        CLOUDY    11   8  88 CALM      30.32R
WISC RAPIDS    CLOUDY    11   8  88 SW3       30.31R
CAMP DOUGLAS   PTCLDY     9   5  85 W3        30.32R
$$

WIZ011>013-019>022-031-037>040-048>050-221400-
NORTHEAST WISCONSIN

CITY           SKY/WX    TMP DP  RH WIND       PRES   REMARKS
ANTIGO         CLOUDY    16  11  82 W3        30.25R
SHAWANO        CLOUDY    23  14  67 W3        30.29R
OCONTO         CLOUDY    24  13  64 W6        30.30R WCI  17
STURGEON BAY   CLOUDY    25  14  63 NW9       30.28R WCI  15
GREEN BAY      CLOUDY    24  17  74 W6        30.30R WCI  17
MANITOWOC      NOT AVBL
APPLETON       PTCLDY    18  10  73 W7        30.28R WCI   8
CLINTONVILLE   PTCLDY    19  10  68 W6        30.30R WCI  11
OSHKOSH        CLOUDY    16  12  84 W6        30.30R WCI   7
$$

WIZ032>034-041-042-053>061-221400-
SOUTHWEST WISCONSIN

CITY           SKY/WX    TMP DP  RH WIND       PRES   REMARKS
LA CROSSE      CLOUDY    17  10  74 N5        30.36R WCI  10
SPARTA         CLOUDY     9   8  92 CALM      30.35R
VIROQUA        CLOUDY    15  13  94 CALM      30.30R
BOSCOBEL       CLOUDY    14  10  84 CALM      30.36S
PRAIRIE DU CHI CLOUDY    17  12  78 CALM      30.37R
PLATTEVILLE    CLOUDY    17  15  91 W3        30.33S
$$

WIZ056-057-062-063-064-067-068-221400-
SOUTH CENTRAL WISCONSIN

CITY           SKY/WX    TMP DP  RH WIND       PRES   REMARKS
REEDSBURG      CLOUDY    16  10  76 CALM      30.32S
BARABOO/DELLS  CLOUDY    14  10  81 CALM      30.31S
LONE ROCK      CLOUDY    13   9  84 W3        30.35R
MINERAL POINT  CLOUDY    18  16  93 CALM      30.31S
MADISON        CLOUDY    16  12  84 NW5       30.31F WCI   9
MIDDLETON      CLOUDY    17  13  87 CALM      30.31F
WATERTOWN      CLOUDY    15  13  93 CALM      30.31S
MONROE         CLOUDY    19  12  73 W5        30.30F WCI  13
JANESVILLE     CLEAR     19  14  79 CALM      30.32F
$$

WIZ051-052-058>065-066-070>072-221400-
SOUTHEAST WISCONSIN

CITY           SKY/WX    TMP DP  RH WIND       PRES   REMARKS
MILWAUKEE      PTCLDY    22  13  68 NW3       30.31S
WAUKESHA       CLEAR     16  12  86 NW5       30.31S WCI   9
MILWAUKEE/TIMM CLOUDY    18  10  73 CALM      30.32S
RACINE         PTCLDY    19  13  77 W7        30.33S WCI  10
BURLINGTON     CLOUDY    19  18  94 SW3       30.32S
KENOSHA        CLOUDY    18  12  77 NW5       30.32S WCI  11
FOND DU LAC    CLOUDY    16  10  77 NW7       30.30S WCI   6
SHEBOYGAN      CLEAR     18  14  84 CALM      30.30S
WEST BEND      CLOUDY    18  12  79 NW3       30.30R
JUNEAU         CLOUDY    16  12  84 CALM      30.31S
$$

LSZ147-162-221400-
LAKE SUPERIOR

STATION/POSITION TIME  TEMP    WIND        PRES    WAVE
                       AIR SEA DIR/SP/G            HT/PER
                 (UTC) (F)     (DEG/KT/KT) (MB)    (FT/S)
DEVILS ISLAND    1300   22     250/ 15/ 21 1025.3F
SAXON HARBOR     1240   18     200/  4/  6 1025.1S
$$

LMZ867-665-643>646-221400-
LAKE MICHIGAN

STATION/POSITION TIME  TEMP    WIND        PRES    WAVE
                       AIR SEA DIR/SP/G            HT/PER
                 (UTC) (F)     (DEG/KT/KT) (MB)    (FT/S)
N MID LAKE BUOY  1250   29 47  320/ 10/ 14 1025.2R   3/ 4
NORTHPORT PIER   1251   28     320/ 12/ 16 1024.7R
KEWAUNEE LAKESHO 1242   25     310/  3/  5 1024.4F
SHEBOYGAN LAKESH 1300   22     290/  8/  9 1026.9F
PORT WASHINGTON  1240   20     290/  5/  8 1027.1F
MILWAUKEE LAKESH 1250   22     300/  7/  8   N/A
S MID LAKE BUOY  1150   31 47   10/ 12/ 16 1026.3R   4/ 7
KENOSHA   LAKESH 1300   21     280/  8/ 11 1026.4
$$

TC  - TEMPERATURE IN CELSIUS
VSB - VISIBILITY IN STATUTE MILES
WCI - WIND CHILL INDEX
HX  - HEAT INDEX





USA.gov is the U.S. government's official web portal to all federal, state and local government web resources and services.